sat.trackr.live / text

‹ back to catalog

ONEWEB-0332

NORAD 49279 · 2021-090A

PAYLOAD ACTIVE UNKNOWN

§ Identity

Operator
Country
UK
Launch date
2021-10-14
Launch site
VOSTO
Launch vehicle
Mass (kg)
RCS (m²)

Purposes: comms

External: N2YO · Heavens-Above · Gunter

§ Orbital elements

Epoch: 2026-05-25T03:43:07.292064Z

Period
109.55 min
Inclination
87.8941°
Eccentricity
0.0001698
Mean motion
13.14503714 rev/d
Perigee alt
1,204.5 km
Apogee alt
1,207.1 km
Semi-major
7,583.9 km
B*
5.3152e-5
RAAN
294.3025°
Arg perigee
90.7758°
Mean anomaly
269.3566°
Rev number
22,455

§ Raw data

ONEWEB-03321 49279U 21090A   26145.15494551  .00000032  00000+0  53152-4 0  99992 49279  87.8941 294.3025 0001698  90.7758 269.3566 13.14503714224559

JSON: /api/v1/satellites/49279 · /tle

For live sub-satellite position, see the globe view (requires WebGL).

§ Visibility from observer

Set your observer location to see the next 7 days of passes ≥ 10°. The values pass through the URL so the page stays shareable.

No JS? Fill the form by hand. The geolocation button needs JavaScript.